DELTA 1 DEB, 7059

Orbit data source: Space-Track

DELTA 1 DEB, 7059 is space debris in SSO originally from a launch on Tue, 06 Nov 1973 UTC launched from the Air Force Western Test Range (AFWTR). Debris objects in space refer to the collection of defunct objects orbiting the Earth. Examples of debris include non-operational satellites, rocket bodies, and fragments generated from explosions, collisions, or faulty payload assembly.

Loading next visibility...
Identifier
7059, 1973-086BB
Orbit
SSO
Country
Flag of USUS
Related business
Manufacturer
Unknown
Mission
Spacecraft
Bus & Motor
Unknown
Mass
Unknown
Launch date (UTC)
1973-11-06 (52 years ago)
Launch vehicle
Unknown
Launch site
Air Force Western Test Range (AFWTR)
Object type
Payload
Rocket body
Debris
Shape & HBR
Unknown shape, 0.2 m
Radar Cross Section
Small (<0.1 m²)

Expand to show TLE details & history
Last TLE update: 17 hours ago

TLE from 17 hours ago
0 DELTA 1 DEB
1  7059U 73086BB  25297.24934109  .00000861  00000-0  77517-2 0  9996
2  7059 102.0091  54.2675 0101543  14.0685  15.2611 12.28150155320431
Epoch: 2025-10-24T05:59Z
TLE epoch observation values (Epoch: 2025-10-24T05:59:03.070Z)
Latitude
28.97418°
Longitude
-75.12338°
Altitude
1,482.818 km
Speed
7.159 km/s
True Right ascension
03h 10m 08s
True Declination
28° 50' 32"
Sunlit
Object was in full shadow at epoch
Visualization orbit readout
Latitude
Unknown
Longitude
Unknown
Altitude
Unknown
Speed
Unknown
Apparent Right ascension
Unknown
Apparent Declination
Unknown
Sunlit
N/A
Visualization observer readout
Local Sidereal Time
17:45:53
Azimuth
Unknown
Elevation
Unknown
Doppler factor
Unknown
Orbital elements
Apogee altitude
1,635.384 km
Perigee altitude
1,474.276 km
Semi-major axis
7,932.967 km
Eccentricity
0.01015
Inclination
102.0091°
RAAN
54.2675°
Arg. of periapsis
14.0685°
True anomaly
15.57117°
Mean anomaly
15.2611°
Eccentric anomaly
15.41575°
Mean motion
3.07178 °/min
Orbital period
117.2 mins
BSTAR
0.0077517
Loading maneuver chart data...
Computing Atmospheric mass density...
Loading historical data...
Loading historical data...
Loading historical data...
Loading historical data...
Loading historical data...
Loading historical data...
Loading historical data...

Documentation

Showing up to 5 results
|